GW4271 Weather Reports


Display with metric or nautical units.
time (UTC)temp
F
wind
direction
speed
MPH
gust
MPH
rain 1hr
in
rain 24hr
in
rain mn
in
humidity
%
barometer
mb
20260504035722 61 152 0.0 0.0 0.00 0.00 0.00 83 1019.3
20260504035219 62 152 0.0 0.0 0.00 0.00 0.00 80 1019.5
20260504034716 62 152 0.0 0.0 0.00 0.00 0.00 79 1019.5
20260504034213 63 152 0.0 0.0 0.00 0.00 0.00 79 1019.5
20260504033706 63 152 0.0 0.0 0.00 0.00 0.00 79 1019.4
20260504033203 62 152 0.0 0.0 0.00 0.00 0.00 79 1019.5
20260504032659 62 152 0.0 0.0 0.00 0.00 0.00 79 1019.6
20260504032157 63 152 0.0 0.0 0.00 0.00 0.00 79 1019.6
20260504031653 63 152 0.0 0.0 0.00 0.00 0.00 78 1019.7
20260504031149 63 137 0.0 0.0 0.00 0.00 0.00 78 1019.5
20260504030646 62 128 0.0 0.0 0.00 0.00 0.00 79 1019.6
20260504030138 62 163 0.0 0.0 0.00 0.00 0.00 78 1019.7
20260504025634 63 163 0.0 0.0 0.00 0.00 0.00 77 1019.6
20260504025131 64 163 0.0 0.0 0.00 0.00 0.00 77 1019.6
20260504024628 64 147 0.0 0.0 0.00 0.00 0.00 77 1019.6
20260504024125 63 120 0.0 0.0 0.00 0.00 0.00 77 1019.7
20260504023621 63 142 0.0 0.0 0.00 0.00 0.00 77 1019.6
20260504023116 64 140 0.0 0.0 0.00 0.00 0.00 76 1019.4
20260504022613 64 136 0.0 0.0 0.00 0.00 0.00 75 1019.4
20260504022109 64 139 0.0 0.0 0.00 0.00 0.00 74 1019.5
20260504021607 65 133 0.0 0.0 0.00 0.00 0.00 74 1019.4
20260504021104 65 158 0.0 0.0 0.00 0.00 0.00 73 1019.2
20260504020600 65 157 0.0 0.0 0.00 0.00 0.00 73 1019.3
20260504020057 66 180 0.0 1.0 0.00 0.00 0.00 72 1019.3
20260504015553 66 135 0.0 0.0 0.00 0.00 0.00 72 1019.3
20260504015049 66 115 0.0 0.0 0.00 0.00 0.00 71 1019.2
20260504014546 66 166 1.0 2.0 0.00 0.00 0.00 71 1019.0
20260504014043 66 147 0.0 0.0 0.00 0.00 0.00 70 1019.1
20260504013541 67 158 0.0 1.0 0.00 0.00 0.00 69 1018.8
20260504013037 67 175 0.0 0.0 0.00 0.00 0.00 69 1018.9
20260504012530 67 139 0.0 0.0 0.00 0.00 0.00 68 1018.8
20260504012027 67 144 0.0 1.0 0.00 0.00 0.00 67 1018.7
20260504011523 68 166 1.0 1.0 0.00 0.00 0.00 67 1018.7
20260504011019 68 125 0.0 0.0 0.00 0.00 0.00 66 1018.7
20260504010515 68 137 0.0 1.0 0.00 0.00 0.00 65 1018.7
20260504010011 68 150 0.0 1.0 0.00 0.00 0.00 65 1018.6
20260504005508 68 147 0.0 1.0 0.00 0.00 0.00 64 1018.5
20260504005006 68 132 0.0 1.0 0.00 0.00 0.00 64 1018.5
20260504004503 68 129 1.0 1.0 0.00 0.00 0.00 63 1018.4
20260504004000 69 181 0.0 1.0 0.00 0.00 0.00 61 1018.5
20260504003456 69 131 0.0 0.0 0.00 0.00 0.00 61 1018.6
20260504002953 69 119 0.0 2.0 0.00 0.00 0.00 60 1018.5
20260504002450 69 101 0.0 2.0 0.00 0.00 0.00 59 1018.4
20260504001947 70 137 0.0 2.0 0.00 0.00 0.00 56 1018.1
20260504001445 70 142 0.0 2.0 0.00 0.00 0.00 56 1018.3
20260504000942 70 102 0.0 0.0 0.00 0.00 0.00 55 1018.3
20260504000439 70 107 0.0 3.0 0.00 0.00 0.00 54 1018.1
20260503235936 70 94 0.0 2.0 0.00 0.00 0.00 52 1018.3
20260503235433 71 148 2.0 3.0 0.00 0.00 0.00 52 1018.2
20260503234931 71 88 2.0 3.0 0.00 0.00 0.00 52 1018.1
20260503234428 71 152 2.0 3.0 0.00 0.00 0.00 53 1018.3
20260503233926 71 110 0.0 2.0 0.00 0.00 0.00 52 1018.2
20260503233422 72 126 2.0 6.0 0.00 0.00 0.00 51 1018.4
20260503232919 72 165 1.0 6.0 0.00 0.00 0.00 51 1018.3
20260503232416 72 168 1.0 3.0 0.00 0.00 0.00 49 1018.3
20260503231914 72 162 2.0 4.0 0.00 0.00 0.00 50 1018.2
20260503231411 73 37 1.0 3.0 0.00 0.00 0.00 48 1018.4
20260503230907 73 206 1.0 3.0 0.00 0.00 0.00 49 1018.4
20260503230403 72 133 0.0 4.0 0.00 0.00 0.00 48 1018.4
20260503225901 73 160 1.0 3.0 0.00 0.00 0.00 48 1018.2
20260503225357 73 133 4.0 7.0 0.00 0.00 0.00 48 1018.3
20260503224853 73 110 4.0 4.0 0.00 0.00 0.00 48 1018.3
20260503224351 73 165 3.0 4.0 0.00 0.00 0.00 48 1018.3
20260503223848 73 115 3.0 7.0 0.00 0.00 0.00 47 1018.3
20260503223346 73 143 4.0 6.0 0.00 0.00 0.00 47 1018.2
20260503222841 74 103 3.0 7.0 0.00 0.00 0.00 48 1018.3
20260503222340 74 138 1.0 8.0 0.00 0.00 0.00 50 1018.2
20260503221838 74 75 4.0 8.0 0.00 0.00 0.00 49 1018.3
20260503221337 75 143 2.0 4.0 0.00 0.00 0.00 46 1018.3
20260503220832 78 185 1.0 2.0 0.00 0.00 0.00 36 1018.3
20260503220329 77 200 1.0 1.0 0.00 0.00 0.00 37 1018.3
20260503215826 77 51 2.0 4.0 0.00 0.00 0.00 35 1018.3
20260503215323 77 242 3.0 4.0 0.00 0.00 0.00 34 1018.3
20260503214821 77 357 3.0 4.0 0.00 0.00 0.00 34 1018.1
20260503214318 78 337 2.0 7.0 0.00 0.00 0.00 35 1018.4
20260503213815 77 336 4.0 4.0 0.00 0.00 0.00 35 1018.4
20260503213313 78 171 0.0 1.0 0.00 0.00 0.00 34 1018.2
20260503212804 77 160 0.0 4.0 0.00 0.00 0.00 35 1018.6
20260503212304 78 8 3.0 4.0 0.00 0.00 0.00 34 1018.5
20260503211759 78 352 3.0 6.0 0.00 0.00 0.00 35 1018.6
20260503211255 77 75 1.0 2.0 0.00 0.00 0.00 36 1018.7
20260503210749 78 173 1.0 6.0 0.00 0.00 0.00 37 1018.7
20260503210248 78 352 4.0 6.0 0.00 0.00 0.00 34 1018.8
20260503205743 78 158 0.0 2.0 0.00 0.00 0.00 37 1018.6
20260503205239 78 255 2.0 2.0 0.00 0.00 0.00 33 1018.8
20260503204735 78 165 1.0 3.0 0.00 0.00 0.00 34 1018.5
20260503204233 77 46 3.0 7.0 0.00 0.00 0.00 34 1018.8
20260503203730 77 16 4.0 4.0 0.00 0.00 0.00 33 1018.9
20260503203228 77 335 2.0 6.0 0.00 0.00 0.00 34 1019.2
20260503202725 78 348 2.0 4.0 0.00 0.00 0.00 34 1019.2
20260503202223 78 342 2.0 6.0 0.00 0.00 0.00 36 1019.2
20260503201721 78 170 1.0 4.0 0.00 0.00 0.00 34 1019.2
20260503201218 78 76 2.0 3.0 0.00 0.00 0.00 33 1019.1
20260503200714 77 350 2.0 3.0 0.00 0.00 0.00 34 1019.3
20260503200211 76 14 0.0 3.0 0.00 0.00 0.00 35 1019.3
20260503195708 76 5 4.0 4.0 0.00 0.00 0.00 34 1019.5
20260503195205 76 346 5.0 8.0 0.00 0.00 0.00 35 1019.6
20260503194701 76 176 1.0 4.0 0.00 0.00 0.00 40 1019.8
20260503194156 77 326 4.0 7.0 0.00 0.00 0.00 34 1020.0
20260503193653 76 137 2.0 2.0 0.00 0.00 0.00 35 1020.0
20260503193150 76 7 2.0 7.0 0.00 0.00 0.00 35 1020.1
20260503192645 76 159 0.0 3.0 0.00 0.00 0.00 37 1020.1
20260503192140 77 222 2.0 3.0 0.00 0.00 0.00 37 1020.1
20260503191637 76 196 3.0 6.0 0.00 0.00 0.00 36 1020.2
20260503191135 76 103 2.0 4.0 0.00 0.00 0.00 35 1020.5
20260503190632 75 21 4.0 8.0 0.00 0.00 0.00 38 1020.5
20260503190129 76 11 2.0 4.0 0.00 0.00 0.00 35 1020.6
20260503185625 75 336 4.0 7.0 0.00 0.00 0.00 34 1020.7
20260503185120 76 337 4.0 7.0 0.00 0.00 0.00 33 1020.8
20260503184615 75 153 2.0 4.0 0.00 0.00 0.00 34 1020.9
20260503184112 75 24 1.0 7.0 0.00 0.00 0.00 35 1020.9
20260503183609 75 331 4.0 9.0 0.00 0.00 0.00 33 1020.9
20260503183106 75 336 6.0 7.0 0.00 0.00 0.00 32 1020.9
20260503182605 74 271 4.0 9.0 0.00 0.00 0.00 34 1021.0
20260503182102 75 1 4.0 8.0 0.00 0.00 0.00 32 1021.1
20260503181559 75 352 4.0 10.0 0.00 0.00 0.00 34 1021.0
20260503181055 75 6 5.0 7.0 0.00 0.00 0.00 33 1021.2
20260503180552 75 351 3.0 9.0 0.00 0.00 0.00 34 1021.0
20260503180050 75 326 5.0 8.0 0.00 0.00 0.00 36 1021.1
20260503175547 75 7 3.0 8.0 0.00 0.00 0.00 35 1021.2
20260503175044 74 43 5.0 10.0 0.00 0.00 0.00 34 1021.3
20260503174541 75 349 3.0 8.0 0.00 0.00 0.00 37 1021.1
20260503174037 75 46 2.0 6.0 0.00 0.00 0.00 36 1021.1
20260503173532 74 332 2.0 3.0 0.00 0.00 0.00 36 1021.1
20260503173029 74 311 7.0 9.0 0.00 0.00 0.00 35 1021.4
20260503172527 74 190 4.0 9.0 0.00 0.00 0.00 40 1021.4
20260503172024 74 69 1.0 4.0 0.00 0.00 0.00 44 1021.4
20260503171520 74 333 6.0 8.0 0.00 0.00 0.00 37 1021.6
20260503171018 74 317 4.0 7.0 0.00 0.00 0.00 39 1021.5
20260503170514 74 24 3.0 6.0 0.00 0.00 0.00 38 1021.7
20260503150906 69 326 6.0 7.0 0.00 0.00 0.00 59 1022.3
20260503150403 68 350 3.0 4.0 0.00 0.00 0.00 59 1022.3
20260503131256 63 89 1.0 7.0 0.00 0.00 0.00 73 1021.6
20260503130753 62 349 1.0 4.0 0.00 0.00 0.00 75 1021.4
20260503130251 62 314 4.0 6.0 0.00 0.00 0.00 73 1021.4
20260503120217 59 329 3.0 4.0 0.00 0.00 0.00 82 1021.1
20260503110644 55 316 2.0 3.0 0.00 0.00 0.00 87 1020.7
20260503110141 55 315 1.0 2.0 0.00 0.00 0.00 87 1020.7
20260503100108 56 326 0.0 1.0 0.00 0.00 0.00 81 1020.3
20260503081457 60 25 0.0 1.0 0.00 0.00 0.00 74 1019.9
20260503080954 60 121 0.0 3.0 0.00 0.00 0.00 73 1019.6
20260503080451 59 145 0.0 3.0 0.00 0.00 0.00 74 1019.4
20260503072927 59 332 0.0 3.0 0.00 0.00 0.00 74 1019.6
20260503072425 59 146 0.0 0.0 0.00 0.00 0.00 74 1019.6
20260503071922 60 154 0.0 2.0 0.00 0.00 0.00 73 1019.6
20260503071419 61 150 0.0 0.0 0.00 0.00 0.00 71 1019.6
20260503070915 61 251 1.0 2.0 0.00 0.00 0.00 69 1019.6
20260503070412 61 131 1.0 4.0 0.00 0.00 0.00 68 1019.5
20260503060338 62 323 3.0 4.0 0.00 0.00 0.00 64 1019.4
20260503054826 61 142 1.0 2.0 0.00 0.00 0.00 66 1019.4
20260503054321 61 95 0.0 2.0 0.00 0.00 0.00 66 1019.2
20260503053819 61 347 2.0 6.0 0.00 0.00 0.00 67 1019.2
20260503053318 61 153 0.0 3.0 0.00 0.00 0.00 66 1019.2
20260503052814 61 164 1.0 2.0 0.00 0.00 0.00 66 1019.3
20260503052311 62 99 1.0 3.0 0.00 0.00 0.00 65 1019.2
20260503051806 62 311 0.0 3.0 0.00 0.00 0.00 65 1019.1
20260503051303 62 346 3.0 3.0 0.00 0.00 0.00 64 1019.2
20260503050800 62 3 2.0 6.0 0.00 0.00 0.00 63 1019.2
20260503050256 62 88 3.0 4.0 0.00 0.00 0.00 63 1018.9
20260503045754 62 338 1.0 4.0 0.00 0.96 0.96 65 1019.1
20260503045252 62 42 1.0 3.0 0.00 0.96 0.96 65 1019.1
20260503044747 63 285 2.0 2.0 0.00 0.96 0.96 65 1019.1
20260503044244 63 18 2.0 2.0 0.00 0.96 0.96 65 1019.1
20260503043742 64 351 2.0 4.0 0.00 0.96 0.96 64 1018.8
20260503043239 64 257 4.0 4.0 0.00 0.96 0.96 61 1018.9
20260503042735 64 33 2.0 3.0 0.00 0.96 0.96 62 1018.8
20260503042232 63 317 3.0 3.0 0.00 0.96 0.96 63 1018.7
20260503041727 63 99 3.0 4.0 0.00 0.96 0.96 62 1018.7
20260503041226 63 3 3.0 3.0 0.00 0.96 0.96 61 1018.6
20260503040723 64 17 2.0 6.0 0.00 0.96 0.96 61 1018.7
20260503040215 64 143 2.0 6.0 0.00 0.96 0.96 61 1018.5